Rechercher aéroport 
image banner adimage banner adimage banner ad
image banner ad

PS39 - Downes

Situé à Clymer, United States

ICAO - PS39, IATA -

Données fournies par Airmate  

Information générale

Coordonnées: N40°37'42" W78°57'37"
Élévation : 1590 feet MSL.
Variation magnétique : -09° East
Voir autres Aéroports à Pennsylvania

Données opérationnelles

Special qualification required
Heure actuelle UTC:
Heure actuelle locale:
METAR: KIDI 292255Z AUTO 27011KT 10SM FEW025 SCT034 BKN050 26/22 A2988 RMK A01
Voir NOTAMs / SUP AIP / TFR affectant cet aéroport [VIEW]
Fréquences de communication: [VIEW]

Pistes:

Identifiant RWYQFULongueur (ft)Largeur (ft)SurfaceLDA (ft)
141200125GRASS
321200125GRASS

Coordonnées de l'aéroport

Adresse: Clymer United States

Vue satellite de PS39